GW3787 Weather Reports


time (UTC)temp
C
wind
direction
speed
KPH
gust
KPH
rain 1hr
cm
rain 24hr
cm
rain mn
cm
humidity
%
barometer
mb
20260504044601 11 24 9.7 24.1 0.00 0.00 0.00 40 1006.0
20260504043056 12 21 11.3 25.7 0.00 0.00 0.00 42 1005.7
20260504041554 12 27 9.7 24.1 0.00 0.00 0.00 43 1005.0
20260504040104 12 25 3.2 16.1 0.00 0.00 0.00 43 1004.4
20260504034611 12 17 0.0 4.8 0.00 0.00 0.00 42 1003.7
20260504033050 12 18 0.0 4.8 0.00 0.00 0.00 42 1003.2
20260504031550 12 18 0.0 3.2 0.00 0.00 0.00 42 1003.1
20260504030113 13 18 0.0 8.0 0.00 0.00 0.00 40 1003.0
20260504024555 13 17 4.8 9.7 0.00 0.00 0.00 38 1002.8
20260504023049 15 35 4.8 11.3 0.00 0.00 0.00 36 1002.7
20260504021551 16 41 6.4 17.7 0.00 0.00 0.00 34 1002.5
20260504020047 17 41 8.0 16.1 0.00 0.00 0.00 31 1002.4
20260504014550 18 38 4.8 20.9 0.00 0.00 0.00 29 1002.3
20260504013052 19 22 11.3 27.4 0.00 0.00 0.00 24 1002.2
20260504011546 21 28 12.9 20.9 0.00 0.00 0.00 24 1002.2
20260504010044 21 24 1.6 16.1 0.00 0.00 0.00 21 1002.1
20260504004544 22 350 3.2 16.1 0.00 0.00 0.00 21 1002.3
20260504003043 21 355 3.2 17.7 0.00 0.00 0.00 20 1002.4
20260504001557 22 360 4.8 19.3 0.00 0.00 0.00 19 1002.6
20260504000039 22 20 8.0 20.9 0.00 0.00 0.00 19 1002.8
20260503234538 22 360 9.7 20.9 0.00 0.00 0.00 20 1002.9
20260503233039 22 360 4.8 24.1 0.00 0.00 0.00 21 1002.9
20260503231537 22 323 8.0 25.7 0.00 0.00 0.00 22 1003.0
20260503230036 22 333 3.2 30.6 0.00 0.00 0.00 21 1003.1
20260503224534 22 318 9.7 25.7 0.00 0.00 0.00 20 1003.4
20260503223032 22 331 6.4 30.6 0.00 0.00 0.00 21 1003.5
20260503221531 22 328 9.7 29.0 0.00 0.00 0.00 21 1003.6
20260503220030 22 332 3.2 32.2 0.00 0.00 0.00 21 1003.8
20260503214528 22 311 9.7 30.6 0.00 0.00 0.00 23 1004.0
20260503213025 22 305 9.7 27.4 0.00 0.00 0.00 22 1004.4
20260503211532 21 309 14.5 30.6 0.00 0.00 0.00 24 1004.5
20260503210021 21 321 14.5 29.0 0.00 0.00 0.00 22 1004.7
20260503204520 21 326 19.3 30.6 0.00 0.00 0.00 22 1005.1
20260503203018 21 10 6.4 19.3 0.00 0.00 0.00 23 1005.2
20260503201516 21 347 8.0 29.0 0.00 0.00 0.00 24 1005.4
20260503200014 21 314 17.7 33.8 0.00 0.00 0.00 22 1005.6
20260503194511 21 316 8.0 27.4 0.00 0.00 0.00 23 1005.9
20260503193007 21 5 6.4 27.4 0.00 0.00 0.00 24 1006.3
20260503191507 21 345 4.8 30.6 0.00 0.00 0.00 23 1006.5
20260503190012 20 339 3.2 20.9 0.00 0.00 0.00 28 1006.7
20260503184506 20 330 3.2 22.5 0.00 0.00 0.00 28 1007.0
20260503183111 19 360 3.2 22.5 0.00 0.00 0.00 26 1007.3
20260503181558 19 301 3.2 20.9 0.00 0.00 0.00 25 1007.4
20260503180058 18 334 3.2 17.7 0.00 0.00 0.00 25 1007.7
20260503174552 19 324 11.3 20.9 0.00 0.00 0.00 25 1007.9
20260503173109 18 319 4.8 14.5 0.00 0.00 0.00 26 1008.2
20260503171551 19 343 4.8 19.3 0.00 0.00 0.00 28 1008.4
20260503130106 12 312 4.8 17.7 0.00 0.00 0.00 47 1008.9
20260503081534 9 230 0.0 8.0 0.00 0.00 0.00 63 1011.6